Weather History for Doylestown, PA

Change the Weather History Date:

Wednesday, October 9, 2013

  Actual Average (KTTN) Record (KTTN)
Temperature  
Mean Temperature 52 °F 57 °F  
Max Temperature 60 °F 67 °F 86 °F (1939)
Min Temperature 46 °F 46 °F 28 °F (1988)
Degree Days  
Heating Degree Days 12 9  
Month to date heating degree days 66  
Since 1 July heating degree days 131  
Cooling Degree Days 0 0  
Month to date cooling degree days 7  
Year to date cooling degree days 962  
Growing Degree Days 2 (Base 50)    
Moisture  
Dew Point 46 °F    
Average Humidity 76    
Maximum Humidity 86    
Minimum Humidity 64    
Precipitation  
Precipitation 0.00 in 0.15 in 5.42 in (1903)
Month to date precipitation 1.37  
Year to date precipitation 36.62  
Sea Level Pressure  
Sea Level Pressure 30.33 in    
Wind  
Wind Speed 5 mph (NNE)    
Max Wind Speed 9 mph    
Max Gust Speed 21 mph    
Visibility 10 miles    
Events      
T = Trace of Precipitation, MM = Missing Value Source: NWS Daily Summary

Daily Weather History Graph

Daily Weather History Graph

Search for Another Location

Airport:

Trip Planner

Search our weather history database for the weather conditions in past years. The results will help you decide how hot, cold, wet, or windy it might be!

Date:

Astronomy

Oct. 09, 2013 Rise Set
Actual Time 7:05 AM EDT 6:29 PM EDT
Civil Twilight 6:37 AM EDT 6:56 PM EDT
Nautical Twilight 6:06 AM EDT 7:28 PM EDT
Astronomical Twilight 5:34 AM EDT 7:59 PM EDT
Moon 11:58 AM EDT (10/9) 10:01 PM EDT (10/9)
Length of Visible Light 12h 18m
Length of Day
11h 24m
Waxing Crescent, 25% of the Moon is Illuminated
Oct 9
Waxing Crescent
Oct 11
First Quarter
Oct 18
Full
Oct 26
Last Quarter
Nov 3
New

Hourly Weather History & Observations

Time (EDT) Temp. Dew Point Humidity Pressure Visibility Wind Dir Wind Speed Gust Speed Precip Events Conditions
12:54 AM 50.0 °F 46.0 °F 86% 30.31 in 10.0 mi NE 3.5 mph - N/A   Clear
1:54 AM 50.0 °F 45.0 °F 83% 30.32 in 10.0 mi NNE 4.6 mph - N/A   Clear
2:54 AM 50.0 °F 43.0 °F 77% 30.32 in 10.0 mi NE 5.8 mph - N/A   Clear
3:54 AM 48.9 °F 43.0 °F 80% 30.31 in 10.0 mi NNE 4.6 mph - N/A   Clear
4:54 AM 46.9 °F 43.0 °F 86% 30.32 in 10.0 mi NNE 4.6 mph - N/A   Clear
5:54 AM 48.9 °F 42.1 °F 77% 30.33 in 10.0 mi NNE 4.6 mph - N/A   Clear
6:54 AM 46.9 °F 42.1 °F 83% 30.34 in 10.0 mi NNE 3.5 mph - N/A   Clear
7:54 AM 46.9 °F 42.1 °F 83% 30.36 in 10.0 mi NE 4.6 mph - N/A   Clear
8:54 AM 50.0 °F 42.1 °F 74% 30.37 in 10.0 mi NE 6.9 mph - N/A   Clear
9:54 AM 53.1 °F 45.0 °F 74% 30.37 in 10.0 mi NNE 9.2 mph 16.1 mph N/A   Clear
10:54 AM 55.0 °F 46.0 °F 72% 30.38 in 10.0 mi NNE 9.2 mph 16.1 mph N/A   Clear
11:54 AM 57.0 °F 46.9 °F 69% 30.37 in 10.0 mi Variable 4.6 mph - N/A   Clear
12:54 PM 57.9 °F 46.0 °F 65% 30.36 in 10.0 mi Variable 5.8 mph 20.7 mph N/A   Partly Cloudy
1:54 PM 59.0 °F 46.9 °F 64% 30.34 in 10.0 mi NNE 8.1 mph - N/A   Scattered Clouds
2:54 PM 59.0 °F 46.9 °F 64% 30.34 in 10.0 mi Variable 3.5 mph - N/A   Mostly Cloudy
3:54 PM 59.0 °F 48.0 °F 67% 30.33 in 10.0 mi Variable 4.6 mph - N/A   Overcast
4:54 PM 57.9 °F 48.0 °F 70% 30.32 in 10.0 mi NE 5.8 mph - N/A   Mostly Cloudy
5:54 PM 57.0 °F 48.0 °F 72% 30.32 in 10.0 mi NNE 4.6 mph - N/A   Clear
6:54 PM 55.9 °F 48.0 °F 75% 30.31 in 10.0 mi NNE 4.6 mph - N/A   Overcast
7:54 PM 54.0 °F 48.0 °F 80% 30.30 in 10.0 mi NNE 5.8 mph - N/A   Clear
8:54 PM 54.0 °F 46.9 °F 77% 30.30 in 10.0 mi NE 3.5 mph - N/A   Clear
9:54 PM 53.1 °F 46.9 °F 80% 30.29 in 10.0 mi NNE 4.6 mph - N/A   Clear
10:54 PM 52.0 °F 46.9 °F 83% 30.28 in 10.0 mi North 3.5 mph - N/A   Clear
11:54 PM 54.0 °F 46.9 °F 77% 30.26 in 10.0 mi NNE 6.9 mph - N/A   Clear